Helicity
141 31 -57 -85 47 52 -11 11 -1 38 48 60 53 40 -19 89 123 126 126 54 33 21 12 -12 -14 -21 -26 -18 -9 -10 15 21 1 12 16 9 10 5 4 -4 7 10 18 28
179 -89 -71 25 87 80 -27 -18 -41 58 80 36 38 71 16 71 149 132 135 96 32 -3 -20 -21 -20 -10 -5 -16 -5 -4 8 24 25 29 26 21 22 18 16 12 14 20 37 30
168 94 63 40 78 47 27 -14 -46 11 130 156 42 55 91 79 62 91 68 39 1 5 38 34 22 13 -2 -8 -10 -4 15 26 7 3 -22 -18 -19 -15 -23 -10 10 26 19 23
148 129 30 39 30 71 38 45 20 68 76 57 67 84 31 138 126 131 85 71 47 27 8 10 32 29 14 -1 -14 -10 -4 -9 -35 -19 -16 15 11 -1 -32 -37 -41 -35 -15 16
212 142 94 37 -8 113 85 67 76 68 67 88 40 36 32 55 65 132 142 92 42 36 35 13 14 12 12 -17 -38 -32 -28 -53 -60 -43 -22 -20 -38 -58 -76 -61 -38 -18 2 14
160 151 120 94 106 88 138 140 144 173 131 62 40 25 -9 62 109 141 163 146 77 25 32 -9 -24 -24 -36 -35 -37 -49 -36 -53 -65 -74 -58 -50 -46 -38 -36 -23 -11 6 34 67
185 213 191 160 103 141 132 111 150 130 155 92 86 42 22 8 101 148 107 218 208 82 31 21 8 -8 -32 -29 -22 -24 -26 -64 -72 -81 -88 -64 -34 -12 -6 4 3 17 51 57
161 190 221 158 173 219 144 82 180 139 139 80 134 67 -72 -7 -11 51 20 93 112 164 89 40 34 26 5 -4 -7 -14 -20 -41 -57 -55 -54 -32 -12 -8 9 22 28 38 47 64
112 104 181 156 191 149 255 215 108 124 191 133 98 86 63 40 8 31 47 68 126 117 139 107 72 37 42 27 26 43 14 -12 -17 -23 -9 8 4 15 28 49 52 61 75 89
100 122 91 157 152 174 194 136 149 183 111 75 98 96 63 60 28 16 27 102 108 150 106 132 137 103 56 43 33 43 42 25 23 20 34 59 54 39 52 90 92 74 95 115
58 94 132 173 176 148 202 203 225 187 192 117 63 32 58 27 30 34 25 103 100 187 120 114 181 118 115 89 64 69 63 53 27 45 73 99 102 101 89 66 174 184 115 146
82 62 172 155 151 150 159 90 86 186 193 204 162 92 105 15 -16 29 14 36 68 143 119 79 120 96 47 38 38 61 94 106 115 127 107 146 189 158 224 255 164 125 203 122
111 117 106 141 108 43 214 140 113 86 158 150 141 113 120 76 25 -16 20 17 38 79 21 33 58 93 55 40 64 82 117 133 145 151 159 169 206 235 220 274 323 200 264 152
77 64 83 110 131 123 176 205 139 129 98 125 129 99 133 86 45 -1 43 19 49 54 58 64 72 107 90 68 70 103 119 120 145 212 253 276 308 353 377 434 363 300 316 168
78 83 34 24 24 39 75 101 134 155 138 156 153 140 101 97 58 48 51 34 89 68 77 72 48 95 103 53 35 58 84 139 191 254 309 381 385 313 330 422 590 556 559 115
108 139 51 27 5 35 27 100 98 91 120 141 118 162 114 75 66 42 38 91 79 47 45 45 32 46 61 91 85 78 95 137 181 237 251 243 239 278 376 475 609 713 442 446
66 131 116 78 68 56 68 70 84 81 87 115 135 127 92 87 58 44 36 87 55 54 30 21 66 98 79 61 71 88 97 90 130 159 146 144 174 234 359 465 571 725 504 201
131 115 96 152 93 93 65 29 46 82 69 104 130 114 79 37 21 73 83 51 18 52 50 46 63 78 64 63 50 38 46 36 73 108 122 145 187 203 256 379 455 613 378 320
119 143 254 143 125 109 31 57 32 69 67 37 62 66 103 36 62 132 123 75 61 38 49 42 55 72 97 68 51 40 67 87 75 70 82 128 186 250 301 311 429 368 249 290
107 51 159 193 179 109 125 192 204 195 129 124 101 78 101 99 97 168 201 154 105 50 59 116 184 220 194 137 110 125 141 83 43 25 25 72 131 157 218 293 316 182 194 185
178 198 186 163 103 118 130 225 159 128 103 154 112 125 156 197 217 272 175 195 192 256 256 323 361 350 295 211 156 150 192 89 48 39 60 61 73 107 141 293 337 318 264 220
152 178 343 103 121 133 157 201 166 142 145 181 245 236 311 273 336 345 348 298 348 388 445 462 512 486 378 275 226 223 122 76 74 116 131 129 155 214 250 306 300 255 290 351
137 163 289 51 118 17 82 214 303 293 415 361 429 363 366 414 439 442 473 438 459 480 541 457 322 255 223 181 97 53 35 84 147 135 194 221 192 205 191 195 228 250 207 260
210 124 171 187 27 175 276 347 422 401 403 367 363 365 354 401 388 421 403 382 378 337 358 191 147 153 79 -1 -38 -55 -51 57 168 158 199 163 150 176 162 137 121 163 247 372
239 177 111 203 177 152 284 302 325 317 290 241 279 329 352 281 354 302 291 256 232 178 145 97 58 -24 -34 22 61 73 63 90 108 124 128 90 85 104 109 181 166 133 200 231
249 202 138 131 174 180 223 121 124 197 211 162 80 72 113 245 228 171 165 161 155 132 79 47 35 21 16 23 9 6 41 62 104 104 85 72 93 111 110 117 128 171 154 155
Wind_Speed
27 25 57 42 29 44 65 70 62 40 29 24 57 56 49 43 45 43 47 49 50 55 53 51 49 48 44 44 47 48 42 42 43 41 37 34 32 27 23 22 19 16 10 11
41 42 27 33 47 40 31 59 50 41 30 24 36 61 55 34 46 43 39 45 49 47 49 54 52 49 47 45 47 46 47 44 47 41 34 27 20 20 19 14 13 12 12 12
57 51 38 36 46 25 21 50 47 22 32 36 38 62 42 24 39 40 44 41 44 43 40 43 53 50 46 47 43 43 47 46 41 32 17 10 14 16 16 15 15 13 13 16
62 59 45 45 41 36 28 42 48 29 20 73 37 62 51 37 25 28 32 38 36 38 38 37 39 43 46 44 40 38 41 39 26 20 16 16 14 13 16 17 17 18 18 19
62 55 56 56 41 43 48 37 27 31 32 43 48 59 65 14 35 32 32 33 40 44 41 38 37 39 37 34 28 29 30 25 21 17 13 8 7 9 16 18 18 18 18 19
69 47 58 59 51 42 46 35 35 37 40 69 48 18 66 19 22 43 35 38 49 46 40 39 33 24 26 30 25 21 21 27 22 17 14 11 6 5 9 13 15 16 16 17
70 76 61 56 56 54 51 45 48 54 56 73 49 58 73 36 25 36 27 37 50 46 44 37 36 42 31 28 28 21 23 28 22 21 16 14 16 13 10 11 12 13 14 14
78 87 80 61 68 59 55 49 56 50 55 68 52 51 57 63 67 21 12 16 40 50 46 46 44 43 40 36 32 30 27 28 26 25 26 24 24 19 14 11 9 9 9 10
64 86 63 69 60 54 62 77 63 72 55 61 62 62 62 62 60 17 14 13 30 39 47 50 44 41 41 45 44 37 31 33 30 33 28 27 24 21 14 5 1 3 4 10
57 66 77 63 69 66 68 56 73 72 88 93 72 65 54 46 59 55 12 18 30 35 39 44 46 48 49 50 47 47 51 50 44 38 36 32 29 24 15 7 5 5 5 5
51 65 62 69 89 94 76 76 70 70 80 91 93 90 65 70 61 55 49 14 19 22 39 45 40 46 52 52 54 53 50 49 47 48 44 38 33 23 17 18 13 9 7 5
51 58 81 89 66 86 94 91 84 94 83 76 82 82 48 60 66 59 63 50 33 18 34 35 34 37 47 50 55 59 57 53 50 43 39 38 35 33 30 26 17 18 13 14
33 57 78 82 87 86 82 100 95 92 92 95 96 87 56 63 68 66 59 62 48 18 22 29 25 30 40 49 52 54 51 51 46 39 38 41 42 40 38 31 25 21 13 21
38 56 71 91 94 86 92 87 88 97 107 97 101 93 71 69 71 72 42 64 38 18 17 21 19 27 32 45 48 47 46 42 37 37 36 38 41 43 41 35 33 29 23 20
39 64 76 91 92 84 95 94 84 86 104 101 94 86 75 68 77 31 35 55 34 20 18 24 23 22 24 28 30 29 30 26 26 28 32 36 35 33 34 31 26 27 30 60
39 54 61 84 92 87 90 95 89 83 87 87 90 82 68 74 67 75 58 35 22 19 18 24 20 16 20 21 21 17 21 19 15 19 23 22 24 26 30 29 27 28 30 26
39 47 60 76 68 79 98 91 90 88 83 77 88 79 68 73 77 77 58 32 22 21 21 19 20 21 17 15 12 14 13 11 12 14 18 17 17 19 23 24 26 30 30 30
49 51 52 66 54 76 85 79 82 82 77 71 81 80 82 82 81 60 58 36 29 43 41 46 27 26 25 23 11 5 8 7 7 10 12 13 15 17 18 22 25 28 27 21
41 39 58 61 58 64 63 60 65 79 94 80 83 80 74 71 54 57 57 44 42 34 42 44 35 32 25 9 5 1 9 9 9 11 12 13 11 13 15 18 21 23 23 24
38 31 47 63 65 63 50 49 49 50 80 60 64 68 60 51 52 47 47 38 30 25 26 26 18 14 9 3 5 3 8 9 13 16 19 21 22 20 18 18 17 19 22 24
59 75 67 74 71 63 46 57 45 52 57 47 49 47 41 44 41 27 19 17 17 13 20 14 9 7 5 2 3 11 17 20 24 26 24 24 24 22 17 17 19 19 19 15
59 61 67 60 61 68 54 48 46 38 28 25 22 14 13 10 7 5 3 6 6 9 5 9 6 9 13 17 21 25 28 29 30 30 29 26 23 21 20 20 17 15 19 13
60 56 60 46 49 62 51 48 30 14 11 11 13 14 12 9 4 2 6 9 10 10 8 15 17 17 23 26 27 30 33 32 30 34 25 22 18 20 18 19 14 9 7 8
44 35 55 49 36 43 26 16 7 5 8 8 4 6 9 5 2 7 9 13 13 17 18 18 22 27 31 32 32 34 33 42 32 31 23 18 17 17 14 13 9 9 10 11
36 38 32 37 14 29 15 14 9 5 2 5 5 6 9 2 9 10 12 15 17 21 24 26 29 31 34 36 38 37 29 26 27 21 19 18 17 15 14 17 19 15 18 22
37 36 43 47 28 31 19 16 2 3 4 7 7 11 16 16 11 15 17 22 26 27 28 33 35 36 36 37 35 32 27 25 22 21 20 22 21 18 15 15 20 32 33 34
Wind_Direction
237 205 181 174 234 252 193 197 174 246 256 260 200 221 242 177 175 167 172 172 173 179 177 176 175 176 174 175 175 175 170 172 172 171 172 173 173 167 164 169 159 153 104 85
247 205 213 234 244 251 170 181 175 249 259 268 273 221 253 169 185 175 166 173 177 176 176 181 181 179 178 177 176 175 177 174 177 173 163 150 130 143 138 107 56 61 64 63
246 252 241 236 240 226 230 179 180 238 260 273 280 227 237 221 186 182 184 179 179 180 178 178 183 181 177 178 174 173 176 175 169 159 130 36 28 29 48 43 43 65 55 38
252 247 239 237 236 234 202 253 253 246 254 218 277 223 205 189 188 187 183 180 176 177 177 176 177 179 178 177 174 172 173 170 156 145 134 129 111 83 40 38 47 41 42 46
247 244 241 234 223 238 249 255 251 255 253 268 268 256 247 314 192 197 194 188 185 181 177 176 175 176 175 175 174 173 172 170 166 158 152 129 103 44 19 28 43 56 49 54
247 255 243 244 240 233 244 250 264 262 259 249 261 243 254 302 197 202 196 192 190 184 179 178 175 178 179 177 184 189 186 178 176 175 173 169 143 75 50 56 57 56 64 65
246 243 248 243 238 237 238 239 252 253 255 251 269 257 245 295 196 192 187 194 192 189 185 180 177 177 180 183 182 201 196 187 185 182 187 184 168 150 126 101 80 67 73 70
243 242 239 239 237 237 230 230 245 249 258 258 267 268 271 270 255 296 198 190 189 193 189 187 185 182 180 182 187 190 194 194 188 186 180 176 174 165 153 135 102 89 72 54
249 245 246 241 241 232 238 241 250 256 267 262 259 263 272 269 268 307 184 193 182 186 190 192 189 188 184 183 184 189 196 194 194 187 184 183 184 182 178 171 103 38 57 21
254 254 242 242 241 243 245 245 245 251 251 252 259 264 271 282 266 273 292 187 190 193 191 189 191 190 187 188 187 185 187 188 188 188 190 191 192 192 200 225 264 294 321 2
253 252 251 243 239 239 243 244 248 255 254 255 255 254 259 263 272 277 278 251 215 199 190 187 187 187 188 188 188 188 187 189 190 193 194 195 197 207 212 210 240 220 270 290
256 259 251 247 251 249 246 246 246 248 251 259 260 258 270 262 255 269 279 288 287 220 186 186 183 183 186 188 188 190 191 192 195 197 200 205 207 208 210 226 255 282 259 277
263 260 254 253 250 250 249 245 247 250 254 252 254 257 273 271 266 270 286 269 281 270 186 181 182 181 184 187 189 190 193 196 198 199 205 209 214 217 220 232 239 226 274 279
275 267 258 253 252 251 249 250 248 246 249 253 255 259 265 269 269 264 288 272 290 255 195 196 196 180 180 181 184 189 195 199 202 207 214 220 223 226 232 242 240 258 287 271
272 270 265 260 258 253 249 248 249 249 249 252 257 260 264 269 266 249 280 272 285 252 234 194 189 184 185 185 186 191 195 200 207 216 224 232 239 247 250 249 254 263 288 289
278 275 280 264 257 255 249 245 249 251 251 253 256 259 264 264 272 267 272 269 261 238 219 197 211 221 208 200 207 205 199 209 227 224 235 248 250 259 258 252 249 228 228 257
273 277 279 268 266 256 250 246 247 251 252 249 252 258 263 264 265 263 265 265 236 203 200 217 199 204 235 219 248 262 267 251 252 248 237 252 265 261 264 255 246 230 234 251
268 269 274 273 275 256 254 253 250 249 251 251 257 260 257 259 254 266 263 262 255 264 257 257 264 261 270 272 267 197 288 273 260 283 291 295 292 281 273 266 250 235 245 264
260 267 260 272 277 274 260 260 253 247 250 254 256 259 258 258 264 261 260 263 263 269 262 264 268 264 266 254 163 94 325 346 339 329 327 323 316 309 292 274 260 247 253 270
252 268 263 265 271 268 266 269 268 260 251 251 252 251 255 257 254 259 261 264 270 279 270 262 257 249 250 153 126 335 337 342 332 331 328 325 321 318 309 295 285 267 289 291
249 249 260 265 266 267 278 273 263 246 255 248 245 250 248 249 254 256 259 274 288 310 273 259 249 255 285 320 345 313 316 320 324 322 317 318 320 317 322 315 308 291 303 292
251 250 247 267 264 255 290 268 255 261 260 231 214 200 183 184 202 232 264 298 16 46 355 313 302 312 315 315 312 317 314 318 317 322 313 317 322 326 329 325 324 304 299 292
248 253 244 256 271 286 283 255 255 246 211 205 163 163 143 135 187 221 284 303 338 341 3 318 334 333 317 314 316 314 314 313 318 318 313 315 318 328 331 333 338 338 321 318
259 257 251 255 293 256 256 233 199 170 183 202 130 150 114 110 302 303 311 313 327 318 314 332 329 322 319 322 319 311 321 311 320 315 316 322 323 331 338 343 351 337 319 316
266 256 247 251 235 222 224 217 220 162 127 68 36 356 346 129 321 323 321 323 324 322 328 330 331 332 333 334 334 333 326 321 322 320 319 323 337 343 345 342 336 336 334 326
264 253 242 239 229 241 223 230 253 54 306 314 344 329 332 343 327 325 325 325 327 329 329 328 329 329 331 336 335 332 334 331 327 328 329 329 337 346 353 347 338 333 327 323